• In Österreich
  • Länderverzeichnis
  • Für 7 Tage
  • Wassertemperatur
  • Satellitenkarten
  • Wetterkarte
  • News
  • Widgets
  • user-avatar
    Anmelden

    Stündliche Wetter Maceio

    Heute, 18 Dezember, Montag

    Zeit Temperatur Niederschläge Wind Luftdruck Luftfeuchtigkeit
    00:00 +26°C° 0,1 mm 4 m/S 760 mmHg 89%
    01:00 +25°C° 0,1 mm 4 m/S 760 mmHg 91%
    02:00 +25°C° 0 mm 4 m/S 760 mmHg 91%
    03:00 +25°C° 0 mm 4 m/S 759 mmHg 92%
    04:00 +25°C° 0 mm 4 m/S 759 mmHg 93%
    05:00 +25°C° 0 mm 4 m/S 759 mmHg 91%
    06:00 +26°C° 0 mm 4 m/S 760 mmHg 88%
    07:00 +26°C° 0 mm 4 m/S 760 mmHg 86%
    08:00 +28°C° 0,1 mm 4 m/S 760 mmHg 76%
    09:00 +30°C° 0,1 mm 5 m/S 760 mmHg 66%
    10:00 +33°C° 0,1 mm 5 m/S 760 mmHg 56%
    11:00 +34°C° 0,1 mm 5 m/S 760 mmHg 54%
    12:00 +35°C° 0,1 mm 6 m/S 760 mmHg 51%
    13:00 +35°C° 0,1 mm 6 m/S 759 mmHg 49%
    14:00 +34°C° 0,1 mm 6 m/S 759 mmHg 52%
    15:00 +34°C° 0,1 mm 6 m/S 759 mmHg 54%
    16:00 +33°C° 0,1 mm 6 m/S 758 mmHg 57%
    17:00 +32°C° 0,1 mm 5 m/S 758 mmHg 64%
    18:00 +29°C° 0,1 mm 5 m/S 759 mmHg 71%
    19:00 +28°C° 0,1 mm 4 m/S 759 mmHg 79%
    20:00 +27°C° 0 mm 4 m/S 759 mmHg 82%
    21:00 +26°C° 0 mm 4 m/S 760 mmHg 86%
    22:00 +26°C° 0 mm 4 m/S 760 mmHg 90%
    23:00 +26°C° 0,1 mm 4 m/S 760 mmHg 90%

    Morgen, 19 Dezember, Dienstag

    Zeit Temperatur Niederschläge Wind Luftdruck Luftfeuchtigkeit
    00:00 +25°C° 0,1 mm 4 m/S 760 mmHg 91%
    01:00 +25°C° 0,1 mm 4 m/S 760 mmHg 91%
    02:00 +25°C° 0,1 mm 3 m/S 760 mmHg 91%
    03:00 +25°C° 0,1 mm 3 m/S 759 mmHg 91%
    04:00 +25°C° 0,1 mm 3 m/S 759 mmHg 91%
    05:00 +25°C° 0,1 mm 4 m/S 759 mmHg 89%
    06:00 +26°C° 0,1 mm 4 m/S 760 mmHg 88%
    07:00 +26°C° 0,1 mm 4 m/S 760 mmHg 86%
    08:00 +28°C° 0 mm 4 m/S 760 mmHg 76%
    09:00 +30°C° 0 mm 4 m/S 760 mmHg 66%
    10:00 +33°C° 0 mm 5 m/S 761 mmHg 55%
    11:00 +34°C° 0 mm 5 m/S 760 mmHg 51%
    12:00 +35°C° 0 mm 5 m/S 760 mmHg 47%
    13:00 +36°C° 0 mm 5 m/S 760 mmHg 42%
    14:00 +35°C° 0 mm 5 m/S 759 mmHg 45%
    15:00 +34°C° 0 mm 5 m/S 759 mmHg 48%
    16:00 +34°C° 0 mm 5 m/S 758 mmHg 51%
    17:00 +32°C° 0 mm 4 m/S 758 mmHg 57%
    18:00 +29°C° 0 mm 4 m/S 759 mmHg 64%
    19:00 +28°C° 0 mm 3 m/S 759 mmHg 71%
    20:00 +27°C° 0 mm 3 m/S 759 mmHg 75%
    21:00 +27°C° 0 mm 3 m/S 759 mmHg 79%
    22:00 +26°C° 0 mm 3 m/S 760 mmHg 83%
    23:00 +26°C° 0,1 mm 3 m/S 759 mmHg 85%

    übermorgen, 20 Dezember, Mittwoch

    Zeit Temperatur Niederschläge Wind Luftdruck Luftfeuchtigkeit
    00:00 +26°C° 0,1 mm 3 m/S 759 mmHg 86%
    01:00 +26°C° 0,1 mm 3 m/S 759 mmHg 88%
    02:00 +26°C° 0,1 mm 3 m/S 758 mmHg 89%
    03:00 +25°C° 0,1 mm 3 m/S 758 mmHg 90%
    04:00 +25°C° 0,1 mm 3 m/S 758 mmHg 90%
    05:00 +26°C° 0,1 mm 3 m/S 758 mmHg 89%
    06:00 +26°C° 0,1 mm 3 m/S 758 mmHg 88%
    07:00 +26°C° 0,1 mm 3 m/S 759 mmHg 86%
    08:00 +27°C° 0,1 mm 4 m/S 759 mmHg 80%
    09:00 +29°C° 0,1 mm 4 m/S 759 mmHg 75%
    10:00 +30°C° 0,1 mm 4 m/S 760 mmHg 69%
    11:00 +30°C° 0,1 mm 4 m/S 759 mmHg 67%
    12:00 +32°C° 0,1 mm 4 m/S 759 mmHg 65%
    13:00 +32°C° 0,1 mm 4 m/S 759 mmHg 63%
    14:00 +32°C° 0 mm 4 m/S 759 mmHg 61%
    15:00 +32°C° 0 mm 4 m/S 758 mmHg 58%
    16:00 +33°C° 0 mm 4 m/S 757 mmHg 56%
    17:00 +30°C° 0 mm 4 m/S 758 mmHg 62%
    18:00 +29°C° 0 mm 4 m/S 758 mmHg 68%
    19:00 +27°C° 0 mm 3 m/S 758 mmHg 74%
    20:00 +27°C° 0 mm 3 m/S 759 mmHg 78%
    21:00 +26°C° 0 mm 3 m/S 759 mmHg 83%
    22:00 +25°C° 0 mm 3 m/S 759 mmHg 87%
    23:00 +25°C° 0 mm 3 m/S 759 mmHg 89%

    21 Dezember, Donnerstag

    Zeit Temperatur Niederschläge Wind Luftdruck Luftfeuchtigkeit
    00:00 +25°C° 0 mm 3 m/S 758 mmHg 90%
    01:00 +25°C° 0 mm 3 m/S 758 mmHg 92%
    02:00 +25°C° 0,1 mm 3 m/S 758 mmHg 92%
    03:00 +25°C° 0,1 mm 3 m/S 757 mmHg 91%
    04:00 +25°C° 0,1 mm 3 m/S 757 mmHg 91%
    05:00 +25°C° 0,1 mm 3 m/S 757 mmHg 90%
    06:00 +25°C° 0,1 mm 3 m/S 758 mmHg 88%
    07:00 +26°C° 0,1 mm 3 m/S 758 mmHg 86%
    08:00 +27°C° 0,1 mm 3 m/S 758 mmHg 78%
    09:00 +29°C° 0,1 mm 4 m/S 758 mmHg 69%
    10:00 +32°C° 0,1 mm 4 m/S 759 mmHg 60%
    11:00 +33°C° 0 mm 4 m/S 758 mmHg 56%
    12:00 +34°C° 0 mm 4 m/S 758 mmHg 52%
    13:00 +35°C° 0 mm 4 m/S 758 mmHg 48%
    14:00 +35°C° 0 mm 5 m/S 758 mmHg 49%
    15:00 +34°C° 0 mm 5 m/S 757 mmHg 49%
    16:00 +34°C° 0 mm 5 m/S 757 mmHg 49%
    17:00 +33°C° 0 mm 5 m/S 757 mmHg 57%
    18:00 +30°C° 0 mm 5 m/S 758 mmHg 65%
    19:00 +28°C° 0 mm 5 m/S 758 mmHg 72%
    20:00 +27°C° 0 mm 4 m/S 758 mmHg 78%
    21:00 +27°C° 0 mm 4 m/S 759 mmHg 83%
    22:00 +26°C° 0 mm 4 m/S 759 mmHg 89%
    23:00 +25°C° 0 mm 4 m/S 759 mmHg 91%

    22 Dezember, Freitag

    Zeit Temperatur Niederschläge Wind Luftdruck Luftfeuchtigkeit
    00:00 +25°C° 0 mm 3 m/S 759 mmHg 93%
    01:00 +25°C° 0 mm 3 m/S 759 mmHg 95%
    02:00 +25°C° 0 mm 3 m/S 758 mmHg 95%
    03:00 +25°C° 0 mm 3 m/S 758 mmHg 95%
    04:00 +25°C° 0 mm 3 m/S 758 mmHg 95%
    05:00 +25°C° 0 mm 3 m/S 758 mmHg 93%
    06:00 +25°C° 0 mm 3 m/S 759 mmHg 91%
    07:00 +26°C° 0 mm 3 m/S 759 mmHg 89%
    08:00 +28°C° 0 mm 3 m/S 759 mmHg 78%
    09:00 +30°C° 0 mm 4 m/S 759 mmHg 67%
    10:00 +33°C° 0 mm 4 m/S 759 mmHg 57%
    11:00 +34°C° 0 mm 4 m/S 759 mmHg 54%
    12:00 +34°C° 0 mm 5 m/S 759 mmHg 51%
    13:00 +35°C° 0 mm 5 m/S 758 mmHg 48%
    14:00 +35°C° 0 mm 5 m/S 758 mmHg 50%
    15:00 +34°C° 0 mm 5 m/S 758 mmHg 52%
    16:00 +34°C° 0 mm 6 m/S 757 mmHg 55%
    17:00 +32°C° 0 mm 5 m/S 757 mmHg 62%
    18:00 +30°C° 0 mm 5 m/S 758 mmHg 69%
    19:00 +28°C° 0 mm 5 m/S 758 mmHg 75%
    20:00 +28°C° 0 mm 5 m/S 758 mmHg 79%
    21:00 +27°C° 0 mm 5 m/S 759 mmHg 83%
    22:00 +27°C° 0 mm 4 m/S 759 mmHg 87%
    23:00 +26°C° 0,1 mm 4 m/S 759 mmHg 89%

    23 Dezember, Samstag

    Zeit Temperatur Niederschläge Wind Luftdruck Luftfeuchtigkeit
    00:00 +26°C° 0,1 mm 4 m/S 758 mmHg 90%
    01:00 +26°C° 0,1 mm 4 m/S 758 mmHg 92%
    02:00 +26°C° 0,1 mm 4 m/S 758 mmHg 93%
    03:00 +25°C° 0,1 mm 4 m/S 757 mmHg 94%
    04:00 +25°C° 0,1 mm 4 m/S 757 mmHg 95%
    05:00 +26°C° 0,1 mm 4 m/S 758 mmHg 92%
    06:00 +26°C° 0,1 mm 4 m/S 758 mmHg 90%
    07:00 +27°C° 0,1 mm 4 m/S 759 mmHg 88%
    08:00 +28°C° 0,2 mm 4 m/S 759 mmHg 82%
    09:00 +29°C° 0,2 mm 4 m/S 759 mmHg 76%
    10:00 +30°C° 0,2 mm 4 m/S 759 mmHg 70%
    11:00 +30°C° 0,8 mm 5 m/S 759 mmHg 68%
    12:00 +32°C° 0,8 mm 5 m/S 758 mmHg 66%
    13:00 +33°C° 0,8 mm 5 m/S 758 mmHg 64%
    14:00 +32°C° 0,5 mm 5 m/S 758 mmHg 66%
    15:00 +32°C° 0,5 mm 5 m/S 757 mmHg 67%
    16:00 +30°C° 0,5 mm 5 m/S 757 mmHg 69%
    17:00 +29°C° 0,1 mm 5 m/S 757 mmHg 74%
    18:00 +28°C° 0,1 mm 5 m/S 757 mmHg 79%
    19:00 +27°C° 0,1 mm 4 m/S 757 mmHg 85%
    20:00 +27°C° 0,3 mm 4 m/S 758 mmHg 87%
    21:00 +27°C° 0,3 mm 4 m/S 758 mmHg 89%
    22:00 +26°C° 0,3 mm 4 m/S 758 mmHg 91%
    23:00 +26°C° 0,3 mm 4 m/S 758 mmHg 92%
    Mehr zeigen